Tracking 35331 objects as of 17-Sep-2026
HD Live streaming from Space Station
objects crossing your sky now

THOR ABLESTAR DEB

Track THOR ABLESTAR DEB now!
10-day predictions


NORAD ID: 461
Int'l Code: 1961-015EX
Launch date: June 29, 1961
Source: United States (US)
Launch site: AIR FORCE EASTERN TEST RANGE (AFETR)

Note: This is SATELLITE DEBRIS
Your satellite tracking list
Your tracking list is empty




NASA's NSSDC Master Catalog

Two Line Element Set (TLE):
1 00461U 61015EX  26257.92934348  .00025176  00000-0  14355-2 0  9999
2 00461  67.4913 190.8715 0024249 215.1983 144.7564 15.12477307399362
Source of the keplerian elements: AFSPC